Location: Newark
(42.3314°N, 83.0458°W)
Time: 23:05:05
(UTC+00:00)

Falcon 9 debris - Visible Passes

Search period start: 19 July 2019 00:00
Search period end: 29 July 2019 00:00
Orbit: 431 x 439 km, 53.0° (Epoch: 19 July)

Date Brightness Start Highest point End Pass type
(mag) Time Alt. Az. Time Alt. Az. Time Alt. Az.
19 Jul 6.1 05:59:37 11° ENE 05:59:37 11° ENE 05:59:50 10° ENE visible
19 Jul 4.7 07:32:54 26° NW 07:33:41 29° NNW 07:36:45 10° NE visible
19 Jul 5.9 09:09:36 10° NW 09:11:34 14° N 09:13:32 10° NNE visible
20 Jul 4.6 06:51:54 35° N 06:51:54 35° N 06:54:36 10° NE visible
20 Jul 5.9 08:26:57 10° NW 08:29:06 15° N 08:31:14 10° NNE visible
21 Jul 5.4 06:10:52 24° NE 06:10:52 24° NE 06:12:25 10° NE visible
21 Jul 5.8 07:44:17 10° WNW 07:46:38 17° NNW 07:49:00 10° NNE visible
21 Jul 6.0 09:22:40 10° NNW 09:24:45 15° N 09:26:48 10° NE visible
22 Jul 6.1 05:29:48 13° NE 05:29:48 13° NE 05:30:11 10° NE visible
22 Jul 5.5 07:03:04 17° NW 07:04:12 20° NNW 07:06:49 10° NNE visible
22 Jul 6.1 08:40:19 10° NNW 08:42:15 14° N 08:44:12 10° NE visible
23 Jul 5.4 06:21:57 24° NNW 06:21:57 24° NNW 06:24:38 10° NE visible
23 Jul 6.1 07:57:51 10° NW 07:59:45 14° N 08:01:40 10° NNE visible
23 Jul 5.8 09:35:02 10° NNW 09:37:47 22° NNE 09:40:32 10° ENE visible
24 Jul 5.6 05:40:45 22° NNE 05:40:45 22° NNE 05:42:28 10° NE visible
24 Jul 6.2 07:15:17 10° NW 07:17:16 14° N 07:19:16 10° NNE visible
24 Jul 6.0 08:52:51 10° NNW 08:55:21 18° NNE 08:57:51 10° ENE visible
25 Jul 5.8 04:59:27 16° NE 04:59:27 16° NE 05:00:18 10° NE visible
25 Jul 6.2 06:32:41 10° NW 06:34:47 15° N 06:36:57 10° NNE visible
25 Jul 6.2 08:10:38 10° NNW 08:12:54 16° NNE 08:15:09 10° NE visible
26 Jul 6.0 04:17:56 11° NE 04:17:56 11° NE 04:18:06 10° NE visible
26 Jul 6.0 05:51:09 15° NW 05:52:19 17° NNW 05:54:42 10° NNE visible
26 Jul 6.3 07:28:21 10° NNW 07:30:24 15° N 07:32:28 10° NE visible
26 Jul 5.0 09:05:03 10° NW 09:08:14 34° NNE 09:11:25 10° E visible
27 Jul 5.9 03:35:45 11° NE 03:35:45 11° NE 03:35:52 10° NE visible
27 Jul 5.8 05:08:52 18° NW 05:09:52 20° NNW 05:12:30 10° NNE visible
27 Jul 6.4 06:45:59 10° NNW 06:47:55 14° N 06:49:50 10° NE visible
27 Jul 5.4 08:22:52 10° NW 08:25:51 26° NNE 08:28:49 10° E visible
28 Jul 3.0 02:46:44 10° SW 02:50:09 64° SE 02:53:35 10° ENE visible
28 Jul 5.5 04:24:32 10° WNW 04:27:26 24° NNW 04:30:19 10° NE visible
28 Jul 6.4 06:03:30 10° NW 06:05:25 14° N 06:07:19 10° NNE visible
28 Jul 5.8 07:40:42 10° NNW 07:43:26 21° NNE 07:46:10 10° ENE visible
28 Jul 3.0 09:17:22 10° NW 09:20:49 82° SW 09:24:15 10° SE visible
